Datum;"Wasserstand in cm";"Stationsnummer: 5871101";"Stationsname: Woltersdorf I, Wehr OP";"Gew?sser: Nuthe";"Fehlwerte: -777"
"20.03.2024 00:00";146
"20.03.2024 00:15";146
"20.03.2024 00:30";146
"20.03.2024 00:45";146
"20.03.2024 01:00";146
"20.03.2024 01:15";146
"20.03.2024 01:30";146
"20.03.2024 01:45";146
"20.03.2024 02:00";146
"20.03.2024 02:15";146
"20.03.2024 02:30";146
"20.03.2024 02:45";146
"20.03.2024 03:00";146
"20.03.2024 03:15";146
"20.03.2024 03:30";146
"20.03.2024 03:45";146
"20.03.2024 04:00";146
"20.03.2024 04:15";146
"20.03.2024 04:30";146
"20.03.2024 04:45";146
"20.03.2024 05:00";146
"20.03.2024 05:15";146
"20.03.2024 05:30";146
"20.03.2024 05:45";146
"20.03.2024 06:00";146
"20.03.2024 06:15";146
"20.03.2024 06:30";146
"20.03.2024 06:45";146
"20.03.2024 07:00";146
"20.03.2024 07:15";146
"20.03.2024 07:30";146
"20.03.2024 07:45";146
"20.03.2024 08:00";146
"20.03.2024 08:15";146
"20.03.2024 08:30";146
"20.03.2024 08:45";146
"20.03.2024 09:00";146
"20.03.2024 09:15";146
"20.03.2024 09:30";146
"20.03.2024 09:45";146
"20.03.2024 10:00";146
"20.03.2024 10:15";146
"20.03.2024 10:30";146
"20.03.2024 10:45";146
"20.03.2024 11:00";146
"20.03.2024 11:15";146
"20.03.2024 11:30";146
"20.03.2024 11:45";146
"20.03.2024 12:00";146
"20.03.2024 12:15";146
"20.03.2024 12:30";146
"20.03.2024 12:45";146
"20.03.2024 13:00";146
"20.03.2024 13:15";146
"20.03.2024 13:30";146
"20.03.2024 13:45";146
"20.03.2024 14:00";146
"20.03.2024 14:15";146
"20.03.2024 14:30";146
"20.03.2024 14:45";146
"20.03.2024 15:00";146
"20.03.2024 15:15";146
"20.03.2024 15:30";146
"20.03.2024 15:45";146
"20.03.2024 16:00";146
"20.03.2024 16:15";146
"20.03.2024 16:30";146
"20.03.2024 16:45";146
"20.03.2024 17:00";146
"20.03.2024 17:15";146
"20.03.2024 17:30";146
"20.03.2024 17:45";146
"20.03.2024 18:00";146
"20.03.2024 18:15";146
"20.03.2024 18:30";147
"20.03.2024 18:45";147
"20.03.2024 19:00";147
"20.03.2024 19:15";147
"20.03.2024 19:30";147
"20.03.2024 19:45";147
"20.03.2024 20:00";147
"20.03.2024 20:15";147
"20.03.2024 20:30";147
"20.03.2024 20:45";147
"20.03.2024 21:00";147
"20.03.2024 21:15";147
"20.03.2024 21:30";147
"20.03.2024 21:45";147
"20.03.2024 22:00";147
"20.03.2024 22:15";147
"20.03.2024 22:30";147
"20.03.2024 22:45";147
"20.03.2024 23:00";147
"20.03.2024 23:15";147
"20.03.2024 23:30";147
"20.03.2024 23:45";147
"21.03.2024 00:00";147
"21.03.2024 00:15";147
"21.03.2024 00:30";147
"21.03.2024 00:45";147
"21.03.2024 01:00";147
"21.03.2024 01:15";147
"21.03.2024 01:30";147
"21.03.2024 01:45";147
"21.03.2024 02:00";147
"21.03.2024 02:15";146
"21.03.2024 02:30";146
"21.03.2024 02:45";146
"21.03.2024 03:00";146
"21.03.2024 03:15";146
"21.03.2024 03:30";146
"21.03.2024 03:45";146
"21.03.2024 04:00";146
"21.03.2024 04:15";146
"21.03.2024 04:30";146
"21.03.2024 04:45";146
"21.03.2024 05:00";146
"21.03.2024 05:15";146
"21.03.2024 05:30";146
"21.03.2024 05:45";146
"21.03.2024 06:00";146
"21.03.2024 06:15";146
"21.03.2024 06:30";146
"21.03.2024 06:45";146
"21.03.2024 07:00";146
"21.03.2024 07:15";146
"21.03.2024 07:30";146
"21.03.2024 07:45";146
"21.03.2024 08:00";146
"21.03.2024 08:15";146
"21.03.2024 08:30";146
"21.03.2024 08:45";146
"21.03.2024 09:00";146
"21.03.2024 09:15";146
"21.03.2024 09:30";146
"21.03.2024 09:45";146
"21.03.2024 10:00";147
"21.03.2024 10:15";147
"21.03.2024 10:30";147
"21.03.2024 10:45";147
"21.03.2024 11:00";147
"21.03.2024 11:15";147
"21.03.2024 11:30";147
"21.03.2024 11:45";147
"21.03.2024 12:00";147
"21.03.2024 12:15";148
"21.03.2024 12:30";148
"21.03.2024 12:45";148
"21.03.2024 13:00";148
"21.03.2024 13:15";148
"21.03.2024 13:30";148
"21.03.2024 13:45";148
"21.03.2024 14:00";148
"21.03.2024 14:15";148
"21.03.2024 14:30";148
"21.03.2024 14:45";148
"21.03.2024 15:00";148
"21.03.2024 15:15";148
"21.03.2024 15:30";148
"21.03.2024 15:45";148
"21.03.2024 16:00";148
"21.03.2024 16:15";148
"21.03.2024 16:30";148
"21.03.2024 16:45";148
"21.03.2024 17:00";148
"21.03.2024 17:15";148
"21.03.2024 17:30";148
"21.03.2024 17:45";148
"21.03.2024 18:00";148
"21.03.2024 18:15";148
"21.03.2024 18:30";148
"21.03.2024 18:45";148
"21.03.2024 19:00";148
"21.03.2024 19:15";148
"21.03.2024 19:30";148
"21.03.2024 19:45";148
"21.03.2024 20:00";148
"21.03.2024 20:15";148
"21.03.2024 20:30";148
"21.03.2024 20:45";148
"21.03.2024 21:00";148
"21.03.2024 21:15";148
"21.03.2024 21:30";148
"21.03.2024 21:45";148
"21.03.2024 22:00";148
"21.03.2024 22:15";148
"21.03.2024 22:30";148
"21.03.2024 22:45";148
"21.03.2024 23:00";148
"21.03.2024 23:15";148
"21.03.2024 23:30";148
"21.03.2024 23:45";148
"22.03.2024 00:00";148
"22.03.2024 00:15";148
"22.03.2024 00:30";148
"22.03.2024 00:45";148
"22.03.2024 01:00";148
"22.03.2024 01:15";148
"22.03.2024 01:30";148
"22.03.2024 01:45";148
"22.03.2024 02:00";148
"22.03.2024 02:15";148
"22.03.2024 02:30";148
"22.03.2024 02:45";148
"22.03.2024 03:00";148
"22.03.2024 03:15";148
"22.03.2024 03:30";148
"22.03.2024 03:45";148
"22.03.2024 04:00";148
"22.03.2024 04:15";148
"22.03.2024 04:30";148
"22.03.2024 04:45";148
"22.03.2024 05:00";148
"22.03.2024 05:15";148
"22.03.2024 05:30";148
"22.03.2024 05:45";148
"22.03.2024 06:00";148
"22.03.2024 06:15";148
"22.03.2024 06:30";148
"22.03.2024 06:45";148
"22.03.2024 07:00";148
"22.03.2024 07:15";148
"22.03.2024 07:30";148
"22.03.2024 07:45";148
"22.03.2024 08:00";148
"22.03.2024 08:15";148
"22.03.2024 08:30";148
"22.03.2024 08:45";148
"22.03.2024 09:00";148
"22.03.2024 09:15";148
"22.03.2024 09:30";148
"22.03.2024 09:45";148
"22.03.2024 10:00";148
"22.03.2024 10:15";148
"22.03.2024 10:30";148
"22.03.2024 10:45";148
"22.03.2024 11:00";148
"22.03.2024 11:15";148
"22.03.2024 11:30";148
"22.03.2024 11:45";148
"22.03.2024 12:00";148
"22.03.2024 12:15";148
"22.03.2024 12:30";148
"22.03.2024 12:45";148
"22.03.2024 13:00";148
"22.03.2024 13:15";148
"22.03.2024 13:30";148
"22.03.2024 13:45";148
"22.03.2024 14:00";148
"22.03.2024 14:15";148
"22.03.2024 14:30";148
"22.03.2024 14:45";148
"22.03.2024 15:00";148
"22.03.2024 15:15";148
"22.03.2024 15:30";148
"22.03.2024 15:45";148
"22.03.2024 16:00";148
"22.03.2024 16:15";148
"22.03.2024 16:30";148
"22.03.2024 16:45";148
"22.03.2024 17:00";148
"22.03.2024 17:15";148
"22.03.2024 17:30";148
"22.03.2024 17:45";148
"22.03.2024 18:00";148
"22.03.2024 18:15";148
"22.03.2024 18:30";148
"22.03.2024 18:45";148
"22.03.2024 19:00";148
"22.03.2024 19:15";148
"22.03.2024 19:30";148
"22.03.2024 19:45";148
"22.03.2024 20:00";148
"22.03.2024 20:15";148
"22.03.2024 20:30";148
"22.03.2024 20:45";149
"22.03.2024 21:00";149
"22.03.2024 21:15";149
"22.03.2024 21:30";149
"22.03.2024 21:45";149
"22.03.2024 22:00";149
"22.03.2024 22:15";149
"22.03.2024 22:30";149
"22.03.2024 22:45";149
"22.03.2024 23:00";149
"22.03.2024 23:15";149
"22.03.2024 23:30";149
"22.03.2024 23:45";149
"23.03.2024 00:00";149
"23.03.2024 00:15";149
"23.03.2024 00:30";149
"23.03.2024 00:45";149
"23.03.2024 01:00";149
"23.03.2024 01:15";149
"23.03.2024 01:30";149
"23.03.2024 01:45";149
"23.03.2024 02:00";149
"23.03.2024 02:15";149
"23.03.2024 02:30";149
"23.03.2024 02:45";149
"23.03.2024 03:00";149
"23.03.2024 03:15";149
"23.03.2024 03:30";149
"23.03.2024 03:45";149
"23.03.2024 04:00";149
"23.03.2024 04:15";149
"23.03.2024 04:30";149
"23.03.2024 04:45";149
"23.03.2024 05:00";149
"23.03.2024 05:15";149
"23.03.2024 05:30";149
"23.03.2024 05:45";149
"23.03.2024 06:00";149
"23.03.2024 06:15";149
"23.03.2024 06:30";149
"23.03.2024 06:45";149
"23.03.2024 07:00";149
"23.03.2024 07:15";149
"23.03.2024 07:30";149
"23.03.2024 07:45";149
"23.03.2024 08:00";149
"23.03.2024 08:15";149
"23.03.2024 08:30";149
"23.03.2024 08:45";149
"23.03.2024 09:00";149
"23.03.2024 09:15";149
"23.03.2024 09:30";150
"23.03.2024 09:45";150
"23.03.2024 10:00";150
"23.03.2024 10:15";150
"23.03.2024 10:30";150
"23.03.2024 10:45";150
"23.03.2024 11:00";150
"23.03.2024 11:15";150
"23.03.2024 11:30";150
"23.03.2024 11:45";151
"23.03.2024 12:00";151
"23.03.2024 12:15";151
"23.03.2024 12:30";151
"23.03.2024 12:45";151
"23.03.2024 13:00";151
"23.03.2024 13:15";152
"23.03.2024 13:30";152
"23.03.2024 13:45";152
"23.03.2024 14:00";152
"23.03.2024 14:15";152
"23.03.2024 14:30";152
"23.03.2024 14:45";152
"23.03.2024 15:00";152
"23.03.2024 15:15";152
"23.03.2024 15:30";152
"23.03.2024 15:45";152
"23.03.2024 16:00";152
"23.03.2024 16:15";152
"23.03.2024 16:30";152
"23.03.2024 16:45";152
"23.03.2024 17:00";152
"23.03.2024 17:15";152
"23.03.2024 17:30";152
"23.03.2024 17:45";152
"23.03.2024 18:00";152
"23.03.2024 18:15";152
"23.03.2024 18:30";152
"23.03.2024 18:45";152
"23.03.2024 19:00";152
"23.03.2024 19:15";152
"23.03.2024 19:30";152
"23.03.2024 19:45";152
"23.03.2024 20:00";153
"23.03.2024 20:15";153
"23.03.2024 20:30";153
"23.03.2024 20:45";153
"23.03.2024 21:00";153
"23.03.2024 21:15";153
"23.03.2024 21:30";153
"23.03.2024 21:45";153
"23.03.2024 22:00";153
"23.03.2024 22:15";153
"23.03.2024 22:30";153
"23.03.2024 22:45";153
"23.03.2024 23:00";153
"23.03.2024 23:15";153
"23.03.2024 23:30";153
"23.03.2024 23:45";153
"24.03.2024 00:00";153
"24.03.2024 00:15";153
"24.03.2024 00:30";153
"24.03.2024 00:45";153
"24.03.2024 01:00";153
"24.03.2024 01:15";153
"24.03.2024 01:30";153
"24.03.2024 01:45";153
"24.03.2024 02:00";153
"24.03.2024 02:15";153
"24.03.2024 02:30";153
"24.03.2024 02:45";153
"24.03.2024 03:00";153
"24.03.2024 03:15";153
"24.03.2024 03:30";153
"24.03.2024 03:45";153
"24.03.2024 04:00";153
"24.03.2024 04:15";153
"24.03.2024 04:30";153
"24.03.2024 04:45";153
"24.03.2024 05:00";153
"24.03.2024 05:15";153
"24.03.2024 05:30";153
"24.03.2024 05:45";153
"24.03.2024 06:00";153
"24.03.2024 06:15";153
"24.03.2024 06:30";153
"24.03.2024 06:45";153
"24.03.2024 07:00";153
"24.03.2024 07:15";153
"24.03.2024 07:30";153
"24.03.2024 07:45";153
"24.03.2024 08:00";153
"24.03.2024 08:15";153
"24.03.2024 08:30";153
"24.03.2024 08:45";152
"24.03.2024 09:00";152
"24.03.2024 09:15";152
"24.03.2024 09:30";152
"24.03.2024 09:45";152
"24.03.2024 10:00";152
"24.03.2024 10:15";152
"24.03.2024 10:30";152
"24.03.2024 10:45";152
"24.03.2024 11:00";152
"24.03.2024 11:15";152
"24.03.2024 11:30";152
"24.03.2024 11:45";152
"24.03.2024 12:00";152
"24.03.2024 12:15";152
"24.03.2024 12:30";152
"24.03.2024 12:45";152
"24.03.2024 13:00";152
"24.03.2024 13:15";152
"24.03.2024 13:30";152
"24.03.2024 13:45";152
"24.03.2024 14:00";152
"24.03.2024 14:15";152
"24.03.2024 14:30";152
"24.03.2024 14:45";152
"24.03.2024 15:00";152
"24.03.2024 15:15";152
"24.03.2024 15:30";152
"24.03.2024 15:45";152
"24.03.2024 16:00";152
"24.03.2024 16:15";152
"24.03.2024 16:30";152
"24.03.2024 16:45";152
"24.03.2024 17:00";152
"24.03.2024 17:15";152
"24.03.2024 17:30";152
"24.03.2024 17:45";152
"24.03.2024 18:00";152
"24.03.2024 18:15";152
"24.03.2024 18:30";152
"24.03.2024 18:45";152
"24.03.2024 19:00";152
"24.03.2024 19:15";152
"24.03.2024 19:30";152
"24.03.2024 19:45";152
"24.03.2024 20:00";152
"24.03.2024 20:15";152
"24.03.2024 20:30";152
"24.03.2024 20:45";152
"24.03.2024 21:00";152
"24.03.2024 21:15";152
"24.03.2024 21:30";152
"24.03.2024 21:45";152
"24.03.2024 22:00";152
"24.03.2024 22:15";152
"24.03.2024 22:30";152
"24.03.2024 22:45";152
"24.03.2024 23:00";152
"24.03.2024 23:15";152
"24.03.2024 23:30";152
"24.03.2024 23:45";152
"25.03.2024 00:00";152
"25.03.2024 00:15";152
"25.03.2024 00:30";152
"25.03.2024 00:45";152
"25.03.2024 01:00";152
"25.03.2024 01:15";152
"25.03.2024 01:30";152
"25.03.2024 01:45";152
"25.03.2024 02:00";152
"25.03.2024 02:15";152
"25.03.2024 02:30";152
"25.03.2024 02:45";152
"25.03.2024 03:00";152
"25.03.2024 03:15";152
"25.03.2024 03:30";152
"25.03.2024 03:45";152
"25.03.2024 04:00";152
"25.03.2024 04:15";152
"25.03.2024 04:30";152
"25.03.2024 04:45";152
"25.03.2024 05:00";152
"25.03.2024 05:15";152
"25.03.2024 05:30";152
"25.03.2024 05:45";152
"25.03.2024 06:00";152
"25.03.2024 06:15";152
"25.03.2024 06:30";152
"25.03.2024 06:45";152
"25.03.2024 07:00";152
"25.03.2024 07:15";152
"25.03.2024 07:30";152
"25.03.2024 07:45";152
"25.03.2024 08:00";152
"25.03.2024 08:15";153
"25.03.2024 08:30";153
"25.03.2024 08:45";153
"25.03.2024 09:00";153
"25.03.2024 09:15";153
"25.03.2024 09:30";153
"25.03.2024 09:45";153
"25.03.2024 10:00";153
"25.03.2024 10:15";153
"25.03.2024 10:30";153
"25.03.2024 10:45";153
"25.03.2024 11:00";153
"25.03.2024 11:15";153
"25.03.2024 11:30";153
"25.03.2024 11:45";153
"25.03.2024 12:00";153
"25.03.2024 12:15";153
"25.03.2024 12:30";153
"25.03.2024 12:45";153
"25.03.2024 13:00";153
"25.03.2024 13:15";153
"25.03.2024 13:30";153
"25.03.2024 13:45";153
"25.03.2024 14:00";153
"25.03.2024 14:15";153
"25.03.2024 14:30";153
"25.03.2024 14:45";153
"25.03.2024 15:00";153
"25.03.2024 15:15";153
"25.03.2024 15:30";153
"25.03.2024 15:45";153
"25.03.2024 16:00";153
"25.03.2024 16:15";153
"25.03.2024 16:30";153
"25.03.2024 16:45";153
"25.03.2024 17:00";153
"25.03.2024 17:15";153
"25.03.2024 17:30";153
"25.03.2024 17:45";153
"25.03.2024 18:00";153
"25.03.2024 18:15";153
"25.03.2024 18:30";153
"25.03.2024 18:45";153
"25.03.2024 19:00";153
"25.03.2024 19:15";153
"25.03.2024 19:30";153
"25.03.2024 19:45";153
"25.03.2024 20:00";153
"25.03.2024 20:15";153
"25.03.2024 20:30";153
"25.03.2024 20:45";153
"25.03.2024 21:00";153
"25.03.2024 21:15";153
"25.03.2024 21:30";153
"25.03.2024 21:45";153
"25.03.2024 22:00";153
"25.03.2024 22:15";153
"25.03.2024 22:30";153
"25.03.2024 22:45";153
"25.03.2024 23:00";153
"25.03.2024 23:15";153
"25.03.2024 23:30";153
"25.03.2024 23:45";153
"26.03.2024 00:00";153
"26.03.2024 00:15";153
"26.03.2024 00:30";153
"26.03.2024 00:45";153
"26.03.2024 01:00";153
"26.03.2024 01:15";153
"26.03.2024 01:30";153
"26.03.2024 01:45";153
"26.03.2024 02:00";152
"26.03.2024 02:15";152
"26.03.2024 02:30";152
"26.03.2024 02:45";152
"26.03.2024 03:00";152
"26.03.2024 03:15";152
"26.03.2024 03:30";152
"26.03.2024 03:45";152
"26.03.2024 04:00";152
"26.03.2024 04:15";152
"26.03.2024 04:30";152
"26.03.2024 04:45";152
"26.03.2024 05:00";152
"26.03.2024 05:15";152
"26.03.2024 05:30";152
"26.03.2024 05:45";152
"26.03.2024 06:00";152
"26.03.2024 06:15";152
"26.03.2024 06:30";152
"26.03.2024 06:45";152
"26.03.2024 07:00";152
"26.03.2024 07:15";152
"26.03.2024 07:30";152
"26.03.2024 07:45";152
"26.03.2024 08:00";152
"26.03.2024 08:15";152
"26.03.2024 08:30";152
"26.03.2024 08:45";152
"26.03.2024 09:00";152
"26.03.2024 09:15";152
"26.03.2024 09:30";152
"26.03.2024 09:45";152
"26.03.2024 10:00";152
"26.03.2024 10:15";152
"26.03.2024 10:30";152
"26.03.2024 10:45";152
"26.03.2024 11:00";152
"26.03.2024 11:15";152
"26.03.2024 11:30";152
"26.03.2024 11:45";152
"26.03.2024 12:00";152
"26.03.2024 12:15";152
"26.03.2024 12:30";152
"26.03.2024 12:45";152
"26.03.2024 13:00";152
"26.03.2024 13:15";152
"26.03.2024 13:30";152
"26.03.2024 13:45";152
"26.03.2024 14:00";152
"26.03.2024 14:15";152
"26.03.2024 14:30";152
"26.03.2024 14:45";152
"26.03.2024 15:00";152
"26.03.2024 15:15";152
"26.03.2024 15:30";152
"26.03.2024 15:45";152
"26.03.2024 16:00";152
"26.03.2024 16:15";152
"26.03.2024 16:30";152
"26.03.2024 16:45";152
"26.03.2024 17:00";152
"26.03.2024 17:15";152
"26.03.2024 17:30";152
"26.03.2024 17:45";152
"26.03.2024 18:00";152
"26.03.2024 18:15";152
"26.03.2024 18:30";152
"26.03.2024 18:45";152
"26.03.2024 19:00";152
"26.03.2024 19:15";152
"26.03.2024 19:30";152
"26.03.2024 19:45";152
"26.03.2024 20:00";152
"26.03.2024 20:15";152
"26.03.2024 20:30";152
"26.03.2024 20:45";152
"26.03.2024 21:00";152
"26.03.2024 21:15";152
"26.03.2024 21:30";152
"26.03.2024 21:45";152
"26.03.2024 22:00";152
"26.03.2024 22:15";152
"26.03.2024 22:30";152
"26.03.2024 22:45";152
"26.03.2024 23:00";152
"26.03.2024 23:15";152
"26.03.2024 23:30";152
"26.03.2024 23:45";152
"27.03.2024 00:00";152
"27.03.2024 00:15";152
"27.03.2024 00:30";152
"27.03.2024 00:45";152
"27.03.2024 01:00";152
"27.03.2024 01:15";152
"27.03.2024 01:30";152
"27.03.2024 01:45";152
"27.03.2024 02:00";152
"27.03.2024 02:15";152
"27.03.2024 02:30";152
"27.03.2024 02:45";152
"27.03.2024 03:00";152
"27.03.2024 03:15";152
"27.03.2024 03:30";152
"27.03.2024 03:45";152
"27.03.2024 04:00";152
"27.03.2024 04:15";152
"27.03.2024 04:30";152
"27.03.2024 04:45";152
"27.03.2024 05:00";152
"27.03.2024 05:15";152
"27.03.2024 05:30";151
"27.03.2024 05:45";151
"27.03.2024 06:00";151
"27.03.2024 06:15";151
"27.03.2024 06:30";151
"27.03.2024 06:45";151
"27.03.2024 07:00";151
"27.03.2024 07:15";151
"27.03.2024 07:30";151
"27.03.2024 07:45";151
"27.03.2024 08:00";151
"27.03.2024 08:15";151
"27.03.2024 08:30";151
"27.03.2024 08:45";151
"27.03.2024 09:00";151
"27.03.2024 09:15";151
"27.03.2024 09:30";151
"27.03.2024 09:45";151
"27.03.2024 10:00";151
"27.03.2024 10:15";151
"27.03.2024 10:30";151
"27.03.2024 10:45";151
"27.03.2024 11:00";151
"27.03.2024 11:15";151
"27.03.2024 11:30";151
"27.03.2024 11:45";151
"27.03.2024 12:00";151
"27.03.2024 12:15";151
"27.03.2024 12:30";151
"27.03.2024 12:45";151
"27.03.2024 13:00";151
"27.03.2024 13:15";151
"27.03.2024 13:30";151
"27.03.2024 13:45";151
"27.03.2024 14:00";151
"27.03.2024 14:15";151
"27.03.2024 14:30";151
"27.03.2024 14:45";151
"27.03.2024 15:00";151
"27.03.2024 15:15";151
"27.03.2024 15:30";151
"27.03.2024 15:45";151
"27.03.2024 16:00";151
"27.03.2024 16:15";151
"27.03.2024 16:30";151
"27.03.2024 16:45";151
"27.03.2024 17:00";151
"27.03.2024 17:15";151
"27.03.2024 17:30";151
"27.03.2024 17:45";151
"27.03.2024 18:00";151
"27.03.2024 18:15";151
"27.03.2024 18:30";151
"27.03.2024 18:45";151
"27.03.2024 19:00";151
"27.03.2024 19:15";151
"27.03.2024 19:30";151
"27.03.2024 19:45";151
"27.03.2024 20:00";151
"27.03.2024 20:15";151
"27.03.2024 20:30";151
"27.03.2024 20:45";151
"27.03.2024 21:00";151
"27.03.2024 21:15";151
"27.03.2024 21:30";151
"27.03.2024 21:45";151
"27.03.2024 22:00";151
"27.03.2024 22:15";151
"27.03.2024 22:30";151
"27.03.2024 22:45";151
"27.03.2024 23:00";151
"27.03.2024 23:15";151
"27.03.2024 23:30";151
"27.03.2024 23:45";151
"28.03.2024 00:00";151
"28.03.2024 00:15";151
"28.03.2024 00:30";151
"28.03.2024 00:45";151
"28.03.2024 01:00";151
"28.03.2024 01:15";151
"28.03.2024 01:30";151
"28.03.2024 01:45";151
"28.03.2024 02:00";151
"28.03.2024 02:15";151
"28.03.2024 02:30";151
"28.03.2024 02:45";151
"28.03.2024 03:00";151
"28.03.2024 03:15";151
"28.03.2024 03:30";151
"28.03.2024 03:45";151
"28.03.2024 04:00";151
"28.03.2024 04:15";151
"28.03.2024 04:30";151
"28.03.2024 04:45";151
"28.03.2024 05:00";151
"28.03.2024 05:15";151
"28.03.2024 05:30";151
"28.03.2024 05:45";151
"28.03.2024 06:00";151
"28.03.2024 06:15";151
"28.03.2024 06:30";151
"28.03.2024 06:45";151
"28.03.2024 07:00";151
"28.03.2024 07:15";151
"28.03.2024 07:30";151
"28.03.2024 07:45";151
"28.03.2024 08:00";151
"28.03.2024 08:15";151
"28.03.2024 08:30";151
"28.03.2024 08:45";151
"28.03.2024 09:00";151
"28.03.2024 09:15";151
"28.03.2024 09:30";151
"28.03.2024 09:45";151
"28.03.2024 10:00";151
"28.03.2024 10:15";151
"28.03.2024 10:30";151
"28.03.2024 10:45";151
"28.03.2024 11:00";151
"28.03.2024 11:15";151
"28.03.2024 11:30";150
"28.03.2024 11:45";149
"28.03.2024 12:00";149
"28.03.2024 12:15";149
"28.03.2024 12:30";149
"28.03.2024 12:45";149
"28.03.2024 13:00";149
"28.03.2024 13:15";149
"28.03.2024 13:30";149
"28.03.2024 13:45";149
"28.03.2024 14:00";149
"28.03.2024 14:15";149
"28.03.2024 14:30";149
"28.03.2024 14:45";149
"28.03.2024 15:00";149
"28.03.2024 15:15";149
"28.03.2024 15:30";149
"28.03.2024 15:45";149
"28.03.2024 16:00";149
"28.03.2024 16:15";148
"28.03.2024 16:30";148
"28.03.2024 16:45";148
"28.03.2024 17:00";148
"28.03.2024 17:15";148
"28.03.2024 17:30";148
"28.03.2024 17:45";148
"28.03.2024 18:00";148
"28.03.2024 18:15";148
"28.03.2024 18:30";148
"28.03.2024 18:45";148
"28.03.2024 19:00";148
"28.03.2024 19:15";148
"28.03.2024 19:30";148
"28.03.2024 19:45";148
"28.03.2024 20:00";148
"28.03.2024 20:15";148
"28.03.2024 20:30";148
"28.03.2024 20:45";148
"28.03.2024 21:00";149
"28.03.2024 21:15";149
"28.03.2024 21:30";149
"28.03.2024 21:45";149
"28.03.2024 22:00";149
"28.03.2024 22:15";149
"28.03.2024 22:30";149
"28.03.2024 22:45";149
"28.03.2024 23:00";149
"28.03.2024 23:15";149
"28.03.2024 23:30";149
"28.03.2024 23:45";149
"29.03.2024 00:00";149
"29.03.2024 00:15";149
"29.03.2024 00:30";149
"29.03.2024 00:45";149
"29.03.2024 01:00";149
"29.03.2024 01:15";149
"29.03.2024 01:30";149
"29.03.2024 01:45";149
"29.03.2024 02:00";149
"29.03.2024 02:15";149
"29.03.2024 02:30";149
"29.03.2024 02:45";149
"29.03.2024 03:00";149
"29.03.2024 03:15";149
"29.03.2024 03:30";149
"29.03.2024 03:45";149
"29.03.2024 04:00";149
"29.03.2024 04:15";149
"29.03.2024 04:30";149
"29.03.2024 04:45";149
"29.03.2024 05:00";149
"29.03.2024 05:15";149
"29.03.2024 05:30";149
"29.03.2024 05:45";149
"29.03.2024 06:00";149
"29.03.2024 06:15";149
"29.03.2024 06:30";149
"29.03.2024 06:45";149
"29.03.2024 07:00";149
"29.03.2024 07:15";149
"29.03.2024 07:30";149
"29.03.2024 07:45";149
"29.03.2024 08:00";149
"29.03.2024 08:15";149
"29.03.2024 08:30";149
"29.03.2024 08:45";149
"29.03.2024 09:00";149
"29.03.2024 09:15";149
"29.03.2024 09:30";149
"29.03.2024 09:45";149
"29.03.2024 10:00";149
"29.03.2024 10:15";149
"29.03.2024 10:30";149
"29.03.2024 10:45";149
"29.03.2024 11:00";149
"29.03.2024 11:15";149
"29.03.2024 11:30";149
"29.03.2024 11:45";149
"29.03.2024 12:00";149
"29.03.2024 12:15";149
"29.03.2024 12:30";149
"29.03.2024 12:45";149
"29.03.2024 13:00";149
"29.03.2024 13:15";149
"29.03.2024 13:30";149
"29.03.2024 13:45";149
"29.03.2024 14:00";149
"29.03.2024 14:15";148
"29.03.2024 14:30";148
"29.03.2024 14:45";148
"29.03.2024 15:00";148
"29.03.2024 15:15";148
"29.03.2024 15:30";148
"29.03.2024 15:45";148
"29.03.2024 16:00";148
"29.03.2024 16:15";148
"29.03.2024 16:30";148
"29.03.2024 16:45";148
"29.03.2024 17:00";148
"29.03.2024 17:15";148
"29.03.2024 17:30";148
"29.03.2024 17:45";148
"29.03.2024 18:00";148
"29.03.2024 18:15";148
"29.03.2024 18:30";148
"29.03.2024 18:45";148
"29.03.2024 19:00";148
"29.03.2024 19:15";148
"29.03.2024 19:30";148
"29.03.2024 19:45";148
"29.03.2024 20:00";148
"29.03.2024 20:15";148
"29.03.2024 20:30";148
"29.03.2024 20:45";148
"29.03.2024 21:00";148
"29.03.2024 21:15";148
"29.03.2024 21:30";148
"29.03.2024 21:45";148
"29.03.2024 22:00";148
"29.03.2024 22:15";148
"29.03.2024 22:30";148
"29.03.2024 22:45";148
"29.03.2024 23:00";148
"29.03.2024 23:15";148
"29.03.2024 23:30";148
"29.03.2024 23:45";148
"30.03.2024 00:00";148
"30.03.2024 00:15";148
"30.03.2024 00:30";148
"30.03.2024 00:45";148
"30.03.2024 01:00";148
"30.03.2024 01:15";148
"30.03.2024 01:30";148
"30.03.2024 01:45";148
"30.03.2024 02:00";148
"30.03.2024 02:15";148
"30.03.2024 02:30";148
"30.03.2024 02:45";148
"30.03.2024 03:00";148
"30.03.2024 03:15";148
"30.03.2024 03:30";148
"30.03.2024 03:45";148
"30.03.2024 04:00";148
"30.03.2024 04:15";148
"30.03.2024 04:30";148
"30.03.2024 04:45";148
"30.03.2024 05:00";148
"30.03.2024 05:15";148
"30.03.2024 05:30";148
"30.03.2024 05:45";148
"30.03.2024 06:00";148
"30.03.2024 06:15";148
"30.03.2024 06:30";148
"30.03.2024 06:45";148
"30.03.2024 07:00";148
"30.03.2024 07:15";148
"30.03.2024 07:30";148
"30.03.2024 07:45";148
"30.03.2024 08:00";148
"30.03.2024 08:15";148
"30.03.2024 08:30";148
"30.03.2024 08:45";148
"30.03.2024 09:00";148
"30.03.2024 09:15";148
"30.03.2024 09:30";148
"30.03.2024 09:45";148
"30.03.2024 10:00";148
"30.03.2024 10:15";148
"30.03.2024 10:30";148
"30.03.2024 10:45";148
"30.03.2024 11:00";148
"30.03.2024 11:15";148
"30.03.2024 11:30";148
"30.03.2024 11:45";148
"30.03.2024 12:00";148
"30.03.2024 12:15";148
"30.03.2024 12:30";148
"30.03.2024 12:45";148
"30.03.2024 13:00";148
"30.03.2024 13:15";148
"30.03.2024 13:30";148
"30.03.2024 13:45";148
"30.03.2024 14:00";148
"30.03.2024 14:15";148
"30.03.2024 14:30";148
"30.03.2024 14:45";148
"30.03.2024 15:00";148
"30.03.2024 15:15";148
"30.03.2024 15:30";148
"30.03.2024 15:45";148
"30.03.2024 16:00";148
"30.03.2024 16:15";148
"30.03.2024 16:30";148
"30.03.2024 16:45";148
"30.03.2024 17:00";148
"30.03.2024 17:15";148
"30.03.2024 17:30";148
"30.03.2024 17:45";148
"30.03.2024 18:00";148
"30.03.2024 18:15";148
"30.03.2024 18:30";148
"30.03.2024 18:45";148
"30.03.2024 19:00";148